Regional Weather Roundup
Issued by NWS

Home | Current Version | Previous Version | Text Only | Print | Product List | Glossary On
Versions: 1 2 3 4 5 6 7 8 9 10 11 12 13 14 15 16 17 18 19 20 21 22 23 24 25 26 27 28 29 30 31 32 33 34 35 36 37 38 39 40 41 42 43 44 45 46 47 48 49 50
000
ASUS42 KTBW 300417
RWRFL
FLORIDA REGIONAL WEATHER ROUNDUP
NATIONAL WEATHER SERVICE TAMPA BAY RUSKIN FL
1200 AM EDT THU JUL 30 2015

NOTE: "FAIR" INDICATES FEW OR NO CLOUDS BELOW 12,000 FEET WITH NO
SIGNIFICANT WEATHER AND/OR OBSTRUCTIONS TO VISIBILITY.


FLZ001>010-012>015-112-114-115-300500-
PANHANDLE FLORIDA

CITY           SKY/WX    TMP DP  RH WIND       PRES   REMARKS
PENSACOLA      MOCLDY    79  74  84 W6        29.99R
PENSACOLA NAS  MOCLDY    78  75  90 NW3       29.99R FOG
MILTON NAS     CLOUDY    78  74  87 N5        29.99
CRESTVIEW      CLOUDY    79  77  94 CALM      30.00R
DUKE FIELD     MOCLDY    79  75  87 CALM      29.98R
VALPARAISO     PTCLDY    81  76  85 NW1       29.98R
MARY ESTHER    CLOUDY    80  76  88 S3        29.98R
TRI COUNTY     FAIR      76  75  97 CALM      29.99R
PANAMA CITY    FAIR      77  75  93 CALM      29.98R
TYNDALL AFB    CLOUDY    78  76  94 E2        29.99R
APALACHICOLA   CLOUDY    82  76  81 SW16      29.99S

STATION/POSITION SKY/WX   TEMP    WIND        PRES    WAVE   SWELL
                          AIR SEA DIR/SP/G            HT/PER HT/PER
                          (F)     (DEG/KT/KT) (MB)    (FT/S) (FT/S)
30.1N   87.6W              84 85  260/ 10/ 10 1014.5F   1
29.2N   88.2W              88 89  270/ 14/ 16 1015.9F   1/ 3
28.8N   86.0W              81 87  180/ 12/ 14 1015.6S   3/ 4
PANAMA CITY BEAC           82                   N/A
CAPE SAN BLAS    NOT AVBL
TOWER C                    78     210/ 14/ 16 1015.1F
28.5N   84.5W              80 85  310/ 16/ 19 1014.6F   3/ 3

$$
FLZ011-016>038-118-127-128-134-139-239-300500-
NORTH FLORIDA

CITY           SKY/WX    TMP DP  RH WIND       PRES   REMARKS
MARIANNA       MOCLDY    79  76  90 CALM      29.98R
TALLAHASSEE    LGT RAIN  78  75  90 W5        29.97F
PERRY          PTCLDY    76  76 100 CALM      29.96F
CROSS CITY       N/A     77  75  93 CALM      29.97R
LAKE CITY      FAIR      73  72  94 CALM      29.98S
GAINESVILLE    CLEAR     74  72  93 CALM      29.99R
MAYPORT NAS    PTCLDY    80  76  87 VRB6      29.97R
JACKSONVILLE   PTCLDY    76  73  91 W9        29.98R
JAX NAS        CLEAR     81  73  76 NW5       29.99R
JAX CRAIG      CLEAR     79  74  84 W7        29.98R
JAX CECIL      CLEAR     75  73  94 NW6       29.99R
FERNANDINA BEA FAIR      81  77  89 CALM      29.96S
ST AUGUSTINE   CLEAR     76  73  91 SW6       29.98R

STATION/POSITION SKY/WX   TEMP    WIND        PRES    WAVE   SWELL
                          AIR SEA DIR/SP/G            HT/PER HT/PER
                          (F)     (DEG/KT/KT) (MB)    (FT/S) (FT/S)
SHELL POINT                78      30/  2/  4   N/A
KEATON BEACH               81     340/  4/  6 1014.1F
CEDAR KEY                  82     290/  6/  7 1015.7R
FERNANDINA                 80                   N/A
30.7N   81.3W                 83                N/A     2/ 8
MAYPORT                    81                   N/A
31.4N   80.9W              81 82   CALM  /  2 1015.0R   2/ 7   2/ 7
ST AUGUSTINE               77 82  270/  4/  6 1016.0R

$$
FLZ040-043>046-052-053-057-058-063-144-300500-
INTERIOR CENTRAL FLORIDA

CITY           SKY/WX    TMP DP  RH WIND       PRES   REMARKS
OCALA          PTCLDY    73  72  94 CALM      29.99R
THE VILLAGES     N/A     75  75 100 CALM      29.90R
LEESBURG       PTCLDY    75  73  93 SW3       30.00R
SANFORD        CLEAR     77  73  87 W5        29.98R
ORLANDO EXEC   CLEAR     76  75  97 SW5       29.99R
ORLANDO INTL   PTCLDY    76  75  97 SW6       29.99R
WINTER HAVEN   CLEAR     78  76  93 CALM      30.01S
LAKELAND       PTCLDY    77  73  88 CALM      30.00S
BARTOW         FAIR      73 N/A N/A CALM      30.01S
OKEECHOBEE       N/A     73  73 100 SW5       30.02R

$$
FLZ041-047-054-059-064-141-147-300500-
EAST CENTRAL FLORIDA

CITY           SKY/WX    TMP DP  RH WIND       PRES   REMARKS
DAYTONA BEACH  PTCLDY    77  74  90 W5        29.98R
DELAND           N/A     75  73  94 CALM      30.00R
JFK SPACE CTR  MOCLDY    78  73  87 W5        29.96S
CAPE CANAVERAL MOCLDY    79  73  83 SW7       29.96S
PATRICK AFB    MOCLDY    80  75  85 SW9       29.99R
MELBOURNE      MOCLDY    78  73  84 SW7       30.00R
VERO BEACH     MOCLDY    79  74  84 W6        30.00S
FT PIERCE      MOCLDY    77  74  90 SW5       30.00R
STUART           N/A     77  72  83 SW6       30.02S

STATION/POSITION SKY/WX   TEMP    WIND        PRES    WAVE   SWELL
                          AIR SEA DIR/SP/G            HT/PER HT/PER
                          (F)     (DEG/KT/KT) (MB)    (FT/S) (FT/S)
28.5N   80.2W              81 81  290/ 10/ 12 1014.9R
28.9N   78.5W              84 84  250/ 17/ 19 1013.9R
TRIDENT PIER               79                   N/A
28.4N   80.5W                 80                N/A     1/11
27.5N   80.2W                 76                N/A     1/10

$$
FLZ050-056-061-142-242-148-248-149-249-151-251-155-255-
160-260-300500-
WEST CENTRAL FLORIDA

CITY           SKY/WX    TMP DP  RH WIND       PRES   REMARKS
CRYSTAL RIVER  MOCLDY    73  73 100 CALM      29.99R
INVERNESS      FAIR      72  72 100 CALM      29.99R FOG
BROOKSVILLE    MOCLDY    76  75  97 S3        30.00R
ZEPHYRHILLS    FAIR      72  72 100 CALM      30.00S
CLEARWATER     CLOUDY    78  76  93 W5        29.99R
TAMPA INTL     MOCLDY    80  75  84 W5        29.99R
TAMPA EXEC     PTCLDY    79  75  89 CALM      29.99S
PLANT CITY     PTCLDY    79  77  94 S3        30.02R
MACDILL AFB    MOCLDY    80  80 100 W3        29.99R
PETER O KNIGHT MOCLDY    81  79  94 SW3       29.99S
ST PETERSBURG  MOCLDY    81  76  84 W7        29.98R
SARASOTA       MOCLDY    82  76  81 NW9       29.98S
VENICE         FAIR      82  77  83 W9        30.01S

STATION/POSITION SKY/WX   TEMP    WIND        PRES    WAVE   SWELL
                          AIR SEA DIR/SP/G            HT/PER HT/PER
                          (F)     (DEG/KT/KT) (MB)    (FT/S) (FT/S)
CEDAR KEY                  82     290/  6/  7 1015.7R
28.5N   84.5W              80 85  310/ 16/ 19 1014.6F   3/ 3
27.3N   84.2W                 84                N/A     2/ 4
CLEARWATER BEACH           82                   N/A
MIDDLE TAMPA BAY           83                   N/A
VENICE                     83 85  260/ 12/ 13 1015.6R

$$
FLZ066-069-070-075>078-162-262-165-265-300500-
SOUTHWEST FLORIDA AND KEYS

CITY           SKY/WX    TMP DP  RH WIND       PRES   REMARKS
PUNTA GORDA    CLEAR     79  78  97 SW5       30.02S
FT MYERS       PTCLDY    79  76  90 CALM      30.01R
SOUTHWEST INTL PTCLDY    78  76  93 CALM      30.01S
NAPLES         MOCLDY    84  76  76 W7        30.01S
MARCO ISLAND   CLEAR     82  73  74 W3        30.01S
MARATHON       MOCLDY    86  74  67 CALM      30.02S
KEY WEST NAS   CLOUDY    85  76  74 SW7       30.03R
KEY WEST INTL  CLOUDY    85  77  77 SW7       30.04R HX  95

STATION/POSITION SKY/WX   TEMP    WIND        PRES    WAVE   SWELL
                          AIR SEA DIR/SP/G            HT/PER HT/PER
                          (F)     (DEG/KT/KT) (MB)    (FT/S) (FT/S)
VENICE                     83 85  260/ 12/ 13 1015.6R
NAPLES           NOT AVBL
26.0N   85.6W              83 84  240/  8/  8 1016.6F   1/ 8   2/ 8
DRY TORTUGAS               83      10/  2/  2 1016.9R
NW FL BAY                  86     320/  5/  6 1016.7
SAND KEY                   84     260/  4/  6 1017.1R
SOMBRERO KEY               86     250/  5/  6 1017.6R
LONG KEY                   86 90  240/  5/  6 1017.5S
MOLASSES REEF              86 87  250/  7/  7 1016.9R

$$
FLZ067-068-071>074-168-172>174-300500-
SOUTHEAST FLORIDA

CITY           SKY/WX    TMP DP  RH WIND       PRES   REMARKS
W PALM BEACH   PTCLDY    78  75  90 SW5       30.03R
FT LAUDER-EXEC CLOUDY    82  75  79 W6        30.01S
FT LAUDERDALE  CLOUDY    83  77  82 W8        30.01R
POMPANO BEACH  MOCLDY    82  75  79 W6        30.01S
PEMBROKE PINES CLOUDY    82  76  81 W6        30.03R
OPA LOCKA      MOCLDY    83  77  82 W7        30.02S
MIAMI          MOCLDY    83  75  77 W8        30.02S
WEST KENDALL   MOCLDY    80  77  90 W7        30.02S
HOMESTEAD      CLOUDY    83  77  82 W6        30.02R

STATION/POSITION SKY/WX   TEMP    WIND        PRES    WAVE   SWELL
                          AIR SEA DIR/SP/G            HT/PER HT/PER
                          (F)     (DEG/KT/KT) (MB)    (FT/S) (FT/S)
PORT EVERGLADES            83     270/  7/ 10 1016.4R
VIRGINIA KEY               85                   N/A
LAKE WORTH                 81                   N/A
SETTLEMENT POINT           84     230/  3/  4 1017.1R

$$



USA.gov is the U.S. government's official web portal to all federal, state and local government web resources and services.